Regional Weather Roundup
Issued by NWS Jackson, KY

Home | Current Version | Previous Version | Graphics & Text | Print | Product List | Glossary On
Versions: 1 2 3 4 5 6 7 8 9 10 11 12 13 14 15 16 17 18 19 20 21 22 23 24 25 26 27 28 29 30 31 32 33 34 35 36 37 38 39 40 41 42 43 44 45 46 47 48 49 50
000
ASUS43 KJKL 022310
RWRJKL

EAST KENTUCKY HOURLY WEATHER ROUNDUP
NATIONAL WEATHER SERVICE JACKSON KY
600 PM EST MON MAR 02 2015

NOTE: "FAIR" INDICATES FEW OR NO CLOUDS BELOW 12,000 FEET WITH
NO SIGNIFICANT WEATHER AND/OR OBSTRUCTIONS TO VISIBILITY.

* THESE REPORTS ARE NOT UNDER NWS QUALITY CONTROL AND MAY NOT
  REPORT WEATHER SUCH AS PRECIPITATION AND FOG.

KYZ079-080-083-085-087-088-110-112-115-119-120-030000
...EASTERN KENTUCKY...

CITY           SKY/WX    TMP DP  RH WIND       PRES   REMARKS
JACKSON        MOCLDY    39  16  39 CALM      30.35S
LONDON         PTCLDY    44  18  35 N5        30.34F
SOMERSET*      PTCLDY    39  23  52 N7        30.37F WCI  34
MONTICELLO*    CLEAR     43  27  53 N9        30.38S
MIDDLESBORO*   PTCLDY    44  29  55 CALM      30.33F
BLACK MTN*       N/A     30  30 100 CALM        N/A
PIKEVILLE APT* CLEAR     37  18  44 N6        30.34F WCI  33
BIG SANDY*     PTCLDY    39  18  42 N6        30.36S WCI  35
MOREHEAD APT*  PTCLDY    34  19  55 NW6       30.41S WCI  29
$$

KYZ035-036-041-042-044-050-067-078-099-030000
...CENTRAL KENTUCKY...

CITY           SKY/WX    TMP DP  RH WIND       PRES   REMARKS
MT STERLING*   CLEAR     34  21  60 NE5       30.41S WCI  30
FLEMING/MASON* CLEAR     32  18  55 N9        30.42S WCI  24
DANVILLE*      MOCLDY    34  23  64 NE8       30.39F WCI  27
RICHMOND*      MOCLDY    36  19  51 N5        30.38S WCI  32
LEXINGTON      PTCLDY    33  21  61 MISG      30.40F
FRANKFORT      CLEAR     34  19  54 E6        30.40S WCI  29
$$

KYZ091>093-OHZ055-061-077-WVZ005-015-034-035-042-030000
...SOUTHERN OHIO/WEST VIRGINIA...

CITY           SKY/WX    TMP DP  RH WIND       PRES   REMARKS
COVINGTON      MOCLDY    33  13  43 NE3       30.42S
COLUMBUS       MOCLDY    28  11  48 N7        30.43F WCI  21
DAYTON         MOCLDY    26  14  60 N5        30.43F WCI  20
WILMINGTON     PTCLDY    24  13  62 E3        30.43R
HUNTINGTON     PTCLDY    35  18  49 NW6       30.40S WCI  30
CHARLESTON     PTCLDY    37  18  46 VRB6      30.38F WCI  32
PINEVILLE*     CLEAR     37  29  72 MISG      30.38R
BECKLEY        CLEAR     34  12  40 NW7       30.30S WCI  28
BLUEFIELD      CLEAR     37  17  44 W6        30.29R WCI  32
$$

VAZ002-007-008-TNZ017-027-036-066-071-030000
...SOUTHWEST VIRGINIA/EAST TENNESSEE...

CITY           SKY/WX    TMP DP  RH WIND       PRES   REMARKS
WISE*          MOCLDY    37  21  52 N6        30.30F WCI  33
JONESVILLE*    MOCLDY    41  27  56 CALM      30.35S
ABINGDON*      PTCLDY    43  24  47 CALM      30.31S
BRISTOL        MOCLDY    44  27  51 CALM      30.32S
KNOXVILLE      MOCLDY    44  37  76 E9        30.32F
OAK RIDGE      CLEAR     47  30  51 VRB5      30.33F
CROSSVILLE     CLEAR     43  28  55 E7        30.30S
NASHVILLE      MOCLDY    47  29  49 E5        30.34S
$$

...KEY TO REMARKS...
VSB - VISIBILITY IN MILES
WCI - WIND CHILL INDEX
HX  - HEAT INDEX

$$



USA.gov is the U.S. government's official web portal to all federal, state and local government web resources and services.